Time,TemperatureF,DewpointF,PressureIn,WindDirection,WindDirectionDegrees,WindSpeedMPH,WindSpeedGustMPH,Humidity,HourlyPrecipIn,Conditions,Clouds,dailyrainin,SoftwareType,DateUTC
2013-02-19 00:08:00,20.2,4.0,30.20,East,91,0.0,-999.0,49,-99.99,,,0.00,weatherlink.com 1.10,2013-02-19 05:08:00,
2013-02-19 00:23:00,20.6,3.0,30.20,ENE,74,1.0,-999.0,47,-99.99,,,0.00,weatherlink.com 1.10,2013-02-19 05:23:00,
2013-02-19 00:38:00,20.5,4.0,30.21,East,80,0.0,-999.0,48,-99.99,,,0.00,weatherlink.com 1.10,2013-02-19 05:38:00,
2013-02-19 00:53:00,20.0,4.0,30.20,East,80,0.0,-999.0,51,-99.99,,,0.00,weatherlink.com 1.10,2013-02-19 05:53:00,
2013-02-19 01:08:00,19.3,5.0,30.21,East,80,0.0,-999.0,54,-99.99,,,0.00,weatherlink.com 1.10,2013-02-19 06:08:00,
2013-02-19 01:23:00,18.9,6.0,30.21,East,80,0.0,-999.0,57,-99.99,,,0.00,weatherlink.com 1.10,2013-02-19 06:23:00,
2013-02-19 01:38:00,19.2,7.0,30.21,East,80,0.0,-999.0,60,-99.99,,,0.00,weatherlink.com 1.10,2013-02-19 06:38:00,
2013-02-19 01:53:00,19.0,8.0,30.22,East,80,0.0,-999.0,62,-99.99,,,0.00,weatherlink.com 1.10,2013-02-19 06:53:00,
2013-02-19 02:08:00,18.8,6.0,30.22,East,80,0.0,-999.0,58,-99.99,,,0.00,weatherlink.com 1.10,2013-02-19 07:08:00,
2013-02-19 02:23:00,18.6,6.0,30.21,East,80,0.0,-999.0,58,-99.99,,,0.00,weatherlink.com 1.10,2013-02-19 07:23:00,
2013-02-19 02:38:00,18.5,6.0,30.21,East,80,0.0,-999.0,58,-99.99,,,0.00,weatherlink.com 1.10,2013-02-19 07:38:00,
2013-02-19 02:53:00,18.7,6.0,30.21,East,80,0.0,-999.0,58,-99.99,,,0.00,weatherlink.com 1.10,2013-02-19 07:53:00,
2013-02-19 03:08:00,19.6,9.0,30.21,East,80,0.0,-999.0,63,-99.99,,,0.00,weatherlink.com 1.10,2013-02-19 08:08:00,
2013-02-19 03:23:00,19.8,9.0,30.20,East,80,0.0,-999.0,63,-99.99,,,0.00,weatherlink.com 1.10,2013-02-19 08:23:00,
2013-02-19 03:38:00,19.9,10.0,30.19,East,80,0.0,-999.0,66,-99.99,,,0.00,weatherlink.com 1.10,2013-02-19 08:38:00,
2013-02-19 03:53:00,19.7,11.0,30.18,East,80,0.0,-999.0,70,-99.99,,,0.00,weatherlink.com 1.10,2013-02-19 08:53:00,
2013-02-19 04:08:00,19.1,10.0,30.18,East,80,0.0,-999.0,69,-99.99,,,0.00,weatherlink.com 1.10,2013-02-19 09:08:00,
2013-02-19 04:23:00,19.3,11.0,30.18,East,80,0.0,-999.0,70,-99.99,,,0.00,weatherlink.com 1.10,2013-02-19 09:23:00,
2013-02-19 04:39:00,19.7,11.0,30.18,East,80,0.0,-999.0,68,-99.99,,,0.00,weatherlink.com 1.10,2013-02-19 09:39:00,
2013-02-19 04:54:00,20.4,12.0,30.18,East,80,0.0,-999.0,71,-99.99,,,0.00,weatherlink.com 1.10,2013-02-19 09:54:00,
2013-02-19 05:09:00,20.8,13.0,30.18,East,80,0.0,-999.0,71,-99.99,,,0.00,weatherlink.com 1.10,2013-02-19 10:09:00,
2013-02-19 05:24:00,21.5,11.0,30.17,East,80,0.0,-999.0,65,-99.99,,,0.00,weatherlink.com 1.10,2013-02-19 10:24:00,
2013-02-19 05:39:00,22.2,9.0,30.17,East,80,0.0,-999.0,58,-99.99,,,0.00,weatherlink.com 1.10,2013-02-19 10:39:00,
2013-02-19 05:54:00,22.4,10.0,30.17,East,80,0.0,-999.0,59,-99.99,,,0.00,weatherlink.com 1.10,2013-02-19 10:54:00,
2013-02-19 06:09:00,22.3,11.0,30.17,East,80,0.0,-999.0,61,-99.99,,,0.00,weatherlink.com 1.10,2013-02-19 11:09:00,
2013-02-19 06:24:00,22.2,13.0,30.17,East,80,0.0,-999.0,68,-99.99,,,0.00,weatherlink.com 1.10,2013-02-19 11:24:00,
2013-02-19 06:39:00,22.2,13.0,30.16,East,80,0.0,-999.0,68,-99.99,,,0.00,weatherlink.com 1.10,2013-02-19 11:39:00,
2013-02-19 06:54:00,22.3,12.0,30.15,East,80,0.0,-999.0,66,-99.99,,,0.00,weatherlink.com 1.10,2013-02-19 11:54:00,
2013-02-19 07:09:00,22.2,11.0,30.15,East,80,0.0,-999.0,63,-99.99,,,0.00,weatherlink.com 1.10,2013-02-19 12:09:00,
2013-02-19 07:24:00,21.8,13.0,30.15,East,80,0.0,-999.0,68,-99.99,,,0.00,weatherlink.com 1.10,2013-02-19 12:24:00,
2013-02-19 07:39:00,21.5,12.0,30.15,East,80,0.0,-999.0,68,-99.99,,,0.00,weatherlink.com 1.10,2013-02-19 12:39:00,
2013-02-19 07:54:00,21.5,12.0,30.14,East,80,0.0,-999.0,67,-99.99,,,0.00,weatherlink.com 1.10,2013-02-19 12:54:00,
2013-02-19 08:09:00,22.0,13.0,30.14,East,80,0.0,-999.0,69,-99.99,,,0.00,weatherlink.com 1.10,2013-02-19 13:09:00,
2013-02-19 08:24:00,24.9,13.0,30.14,East,80,1.0,-999.0,62,-99.99,,,0.00,weatherlink.com 1.10,2013-02-19 13:24:00,
2013-02-19 08:39:00,28.4,12.0,30.14,ENE,71,1.0,-999.0,50,-99.99,,,0.00,weatherlink.com 1.10,2013-02-19 13:39:00,
2013-02-19 08:54:00,30.0,12.0,30.13,East,100,0.0,-999.0,47,-99.99,,,0.00,weatherlink.com 1.10,2013-02-19 13:54:00,
2013-02-19 09:09:00,30.8,11.0,30.13,ESE,109,2.0,-999.0,44,-99.99,,,0.00,weatherlink.com 1.10,2013-02-19 14:09:00,
2013-02-19 09:24:00,31.9,13.0,30.12,ESE,123,1.0,-999.0,45,-99.99,,,0.00,weatherlink.com 1.10,2013-02-19 14:24:00,
2013-02-19 09:39:00,33.3,13.0,30.12,East,92,2.0,-999.0,44,-99.99,,,0.00,weatherlink.com 1.10,2013-02-19 14:39:00,
2013-02-19 09:54:00,34.4,14.0,30.11,ESE,105,0.0,-999.0,43,-99.99,,,0.00,weatherlink.com 1.10,2013-02-19 14:54:00,
2013-02-19 10:09:00,35.6,15.0,30.10,SSE,148,3.0,-999.0,43,-99.99,,,0.00,weatherlink.com 1.10,2013-02-19 15:09:00,
2013-02-19 10:24:00,36.0,15.0,30.09,ESE,103,2.0,-999.0,43,-99.99,,,0.00,weatherlink.com 1.10,2013-02-19 15:24:00,
2013-02-19 10:39:00,35.8,16.0,30.09,East,100,3.0,-999.0,44,-99.99,,,0.00,weatherlink.com 1.10,2013-02-19 15:39:00,
2013-02-19 10:54:00,36.9,18.0,30.09,NNE,17,2.0,-999.0,46,-99.99,,,0.00,weatherlink.com 1.10,2013-02-19 15:54:00,
2013-02-19 11:09:00,38.2,19.0,30.08,East,101,0.0,-999.0,47,-99.99,,,0.00,weatherlink.com 1.10,2013-02-19 16:09:00,
2013-02-19 11:25:00,39.5,20.0,30.07,WSW,254,3.0,-999.0,46,-99.99,,,0.00,weatherlink.com 1.10,2013-02-19 16:25:00,
2013-02-19 11:40:00,40.2,22.0,30.05,ESE,108,1.0,-999.0,49,-99.99,,,0.00,weatherlink.com 1.10,2013-02-19 16:40:00,
2013-02-19 11:55:00,40.8,24.0,30.04,SE,146,1.0,-999.0,52,-99.99,,,0.00,weatherlink.com 1.10,2013-02-19 16:55:00,
2013-02-19 12:10:00,41.0,25.0,30.03,East,82,3.0,-999.0,54,-99.99,,,0.00,weatherlink.com 1.10,2013-02-19 17:10:00,
2013-02-19 12:25:00,41.5,26.0,30.02,ENE,67,3.0,-999.0,55,-99.99,,,0.00,weatherlink.com 1.10,2013-02-19 17:25:00,
2013-02-19 12:40:00,42.2,26.0,30.01,SSE,157,3.0,-999.0,54,-99.99,,,0.00,weatherlink.com 1.10,2013-02-19 17:40:00,
2013-02-19 12:55:00,43.2,27.0,30.00,SSE,156,2.0,-999.0,53,-99.99,,,0.00,weatherlink.com 1.10,2013-02-19 17:55:00,
2013-02-19 13:10:00,43.5,27.0,29.99,SW,214,1.0,-999.0,53,-99.99,,,0.00,weatherlink.com 1.10,2013-02-19 18:10:00,
2013-02-19 13:25:00,43.5,28.0,29.98,WSW,243,0.0,-999.0,54,-99.99,,,0.00,weatherlink.com 1.10,2013-02-19 18:25:00,
2013-02-19 13:40:00,43.7,28.0,29.97,East,86,3.0,-999.0,54,-99.99,,,0.00,weatherlink.com 1.10,2013-02-19 18:40:00,
2013-02-19 13:55:00,43.7,29.0,29.96,WSW,255,1.0,-999.0,56,-99.99,,,0.00,weatherlink.com 1.10,2013-02-19 18:55:00,
2013-02-19 14:10:00,43.9,28.0,29.95,East,85,1.0,-999.0,55,-99.99,,,0.00,weatherlink.com 1.10,2013-02-19 19:10:00,
2013-02-19 14:25:00,43.8,29.0,29.93,East,90,1.0,-999.0,56,-99.99,,,0.00,weatherlink.com 1.10,2013-02-19 19:25:00,
2013-02-19 14:40:00,43.6,29.0,29.93,ESE,107,0.0,-999.0,56,-99.99,,,0.00,weatherlink.com 1.10,2013-02-19 19:40:00,
2013-02-19 14:55:00,43.9,29.0,29.92,East,85,1.0,-999.0,56,-99.99,,,0.00,weatherlink.com 1.10,2013-02-19 19:55:00,
2013-02-19 15:10:00,44.5,30.0,29.91,ENE,71,2.0,-999.0,58,-99.99,,,0.00,weatherlink.com 1.10,2013-02-19 20:10:00,
2013-02-19 15:25:00,44.7,31.0,29.89,East,84,2.0,-999.0,58,-99.99,,,0.00,weatherlink.com 1.10,2013-02-19 20:25:00,
2013-02-19 15:40:00,44.4,31.0,29.88,ESE,118,4.0,-999.0,59,-99.99,,,0.00,weatherlink.com 1.10,2013-02-19 20:40:00,
2013-02-19 15:55:00,44.4,31.0,29.87,SE,139,2.0,-999.0,60,-99.99,,,0.00,weatherlink.com 1.10,2013-02-19 20:55:00,
2013-02-19 16:10:00,43.6,34.0,29.86,East,92,1.0,-999.0,68,-99.99,,,0.00,weatherlink.com 1.10,2013-02-19 21:10:00,
2013-02-19 16:25:00,42.6,34.0,29.86,ESE,103,4.0,-999.0,72,-99.99,,,0.01,weatherlink.com 1.10,2013-02-19 21:25:00,
2013-02-19 16:40:00,42.0,35.0,29.86,SSW,196,1.0,-999.0,76,-99.99,,,0.01,weatherlink.com 1.10,2013-02-19 21:40:00,
2013-02-19 16:55:00,41.5,35.0,29.85,SSE,164,1.0,-999.0,79,-99.99,,,0.01,weatherlink.com 1.10,2013-02-19 21:55:00,
2013-02-19 17:10:00,41.1,36.0,29.84,SE,130,4.0,-999.0,81,-99.99,,,0.01,weatherlink.com 1.10,2013-02-19 22:10:00,
2013-02-19 17:25:00,40.8,36.0,29.84,WSW,237,0.0,-999.0,83,-99.99,,,0.01,weatherlink.com 1.10,2013-02-19 22:25:00,
2013-02-19 17:40:00,40.1,36.0,29.83,SSE,148,0.0,-999.0,84,-99.99,,,0.01,weatherlink.com 1.10,2013-02-19 22:40:00,
2013-02-19 17:55:00,39.2,35.0,29.82,NNE,29,0.0,-999.0,86,-99.99,,,0.01,weatherlink.com 1.10,2013-02-19 22:55:00,
2013-02-19 18:11:00,38.0,35.0,29.81,NNE,29,0.0,-999.0,88,-99.99,,,0.01,weatherlink.com 1.10,2013-02-19 23:11:00,
2013-02-19 18:26:00,36.8,34.0,29.80,NNE,29,0.0,-999.0,89,-99.99,,,0.02,weatherlink.com 1.10,2013-02-19 23:26:00,
2013-02-19 18:41:00,35.8,33.0,29.79,NNE,29,0.0,-999.0,90,-99.99,,,0.03,weatherlink.com 1.10,2013-02-19 23:41:00,
2013-02-19 18:56:00,35.4,33.0,29.77,NNE,29,0.0,-999.0,92,-99.99,,,0.04,weatherlink.com 1.10,2013-02-19 23:56:00,
2013-02-19 19:11:00,35.2,33.0,29.77,NNE,29,0.0,-999.0,93,-99.99,,,0.05,weatherlink.com 1.10,2013-02-20 00:11:00,
2013-02-19 19:26:00,35.0,33.0,29.75,NNE,29,0.0,-999.0,93,-99.99,,,0.07,weatherlink.com 1.10,2013-02-20 00:26:00,
2013-02-19 19:41:00,34.6,33.0,29.74,NNE,29,0.0,-999.0,93,-99.99,,,0.09,weatherlink.com 1.10,2013-02-20 00:41:00,
2013-02-19 19:56:00,34.4,33.0,29.73,NNE,29,0.0,-999.0,94,-99.99,,,0.11,weatherlink.com 1.10,2013-02-20 00:56:00,
2013-02-19 20:11:00,34.4,33.0,29.73,NNE,29,0.0,-999.0,94,-99.99,,,0.12,weatherlink.com 1.10,2013-02-20 01:11:00,
2013-02-19 20:26:00,34.3,33.0,29.71,NNE,29,0.0,-999.0,95,-99.99,,,0.13,weatherlink.com 1.10,2013-02-20 01:26:00,
2013-02-19 20:41:00,34.3,33.0,29.71,NNE,29,0.0,-999.0,95,-99.99,,,0.15,weatherlink.com 1.10,2013-02-20 01:41:00,
2013-02-19 20:56:00,34.3,33.0,29.69,NNE,29,0.0,-999.0,95,-99.99,,,0.17,weatherlink.com 1.10,2013-02-20 01:56:00,
2013-02-19 21:11:00,34.2,33.0,29.66,NNE,29,0.0,-999.0,95,-99.99,,,0.18,weatherlink.com 1.10,2013-02-20 02:11:00,
2013-02-19 21:26:00,34.3,33.0,29.67,NNE,29,0.0,-999.0,95,-99.99,,,0.18,weatherlink.com 1.10,2013-02-20 02:26:00,
2013-02-19 21:41:00,34.3,33.0,29.67,NNE,29,0.0,-999.0,95,-99.99,,,0.18,weatherlink.com 1.10,2013-02-20 02:41:00,
2013-02-19 21:56:00,34.1,33.0,29.65,NNE,29,0.0,-999.0,95,-99.99,,,0.19,weatherlink.com 1.10,2013-02-20 02:56:00,
2013-02-19 22:11:00,34.1,33.0,29.65,NNE,29,0.0,-999.0,95,-99.99,,,0.19,weatherlink.com 1.10,2013-02-20 03:11:00,
2013-02-19 22:26:00,33.9,33.0,29.65,NNE,29,0.0,-999.0,95,-99.99,,,0.19,weatherlink.com 1.10,2013-02-20 03:26:00,
2013-02-19 22:41:00,33.6,32.0,29.64,NNE,29,0.0,-999.0,95,-99.99,,,0.19,weatherlink.com 1.10,2013-02-20 03:41:00,
2013-02-19 22:56:00,33.4,32.0,29.63,NNE,29,0.0,-999.0,95,-99.99,,,0.20,weatherlink.com 1.10,2013-02-20 03:56:00,
2013-02-19 23:11:00,33.2,32.0,29.63,NNE,29,0.0,-999.0,96,-99.99,,,0.20,weatherlink.com 1.10,2013-02-20 04:11:00,
2013-02-19 23:26:00,33.2,32.0,29.63,NNE,29,0.0,-999.0,96,-99.99,,,0.20,weatherlink.com 1.10,2013-02-20 04:26:00,
2013-02-19 23:41:00,33.6,33.0,29.63,NNE,29,0.0,-999.0,96,-99.99,,,0.20,weatherlink.com 1.10,2013-02-20 04:41:00,
2013-02-19 23:56:00,34.2,33.0,29.62,NNE,29,0.0,-999.0,96,-99.99,,,0.20,weatherlink.com 1.10,2013-02-20 04:56:00,